Wind_Speed
60 60 60 59 58 58 58 57 56 55 56 55 54 53 51 50 49 48 46 45 45 45 45 44 44 43 41 40 38 36 35 34 32 31 30 29 29 28 28 28 29 30 30 32 33 33 34 35 35 36 37 37 38 38 38 38 38 38 38 37 37 37 37 37 37 37 37 37 37 37 38 38 39 39 40 40 40 39 39 40 41 42 43 43 43 42
59 60 59 58 57 56 57 56 55 54 53 53 52 51 49 48 47 47 46 45 44 44 44 43 43 42 40 39 37 35 33 32 30 29 28 27 27 27 27 27 28 29 30 32 33 34 34 35 36 36 37 38 38 38 39 39 39 39 39 38 38 38 38 38 38 38 38 38 38 38 38 39 39 39 40 40 40 40 40 40 40 41 43 44 44 43
58 58 58 57 56 55 55 55 54 53 51 51 50 49 48 47 46 46 45 45 45 44 44 43 42 41 39 38 36 34 32 30 28 27 26 26 26 26 27 27 28 30 31 32 33 34 34 35 36 36 37 37 38 38 39 39 39 39 39 39 39 39 39 39 39 39 39 39 39 39 39 39 40 40 40 41 40 40 40 40 40 40 41 42 43 43
57 56 56 56 55 54 53 53 52 51 50 49 48 47 47 46 46 46 45 45 45 45 44 43 41 40 38 36 34 32 30 29 27 26 26 26 26 27 28 28 30 31 32 32 33 33 34 35 35 36 36 37 37 38 38 39 39 39 39 39 39 39 39 39 39 39 39 39 39 39 40 40 40 40 41 41 41 41 40 40 39 39 40 40 41 42
56 55 55 54 54 53 53 52 51 50 49 48 47 46 46 46 46 46 46 46 45 44 43 42 40 39 37 35 33 31 30 28 27 27 26 27 27 28 29 30 30 31 32 32 32 33 33 33 34 35 35 36 36 37 37 38 38 38 38 39 39 39 39 39 39 39 40 40 40 40 40 40 41 41 41 41 41 40 40 40 39 39 39 39 39 39
55 54 53 53 52 52 51 51 50 49 48 47 46 46 45 45 46 46 46 46 45 44 43 41 39 38 36 35 33 31 30 29 28 27 27 28 28 29 29 30 31 31 31 31 31 31 32 32 33 33 34 34 35 35 36 36 36 37 37 38 38 38 39 39 39 40 40 40 40 40 41 41 41 41 41 41 40 40 40 39 38 38 37 37 37 37
54 53 52 51 51 51 50 49 48 47 46 46 46 46 46 46 46 46 45 45 45 44 42 40 38 37 35 34 33 31 30 29 28 28 28 29 29 29 30 30 30 30 30 30 30 30 30 31 31 31 32 32 33 33 33 34 34 35 36 36 37 38 38 39 39 39 40 40 40 40 41 41 41 41 40 40 40 39 38 38 37 37 36 36 35 35
53 52 52 50 50 50 50 49 47 46 45 45 46 47 47 46 46 45 45 44 43 42 42 40 38 36 34 33 33 32 31 30 29 29 29 29 30 30 30 30 30 29 29 29 29 29 29 29 30 30 30 30 31 31 31 32 33 34 35 35 36 37 38 38 39 39 40 40 40 41 41 41 40 40 39 39 38 37 37 36 36 35 34 34 34 34
51 51 50 50 49 48 48 48 47 46 45 45 45 46 46 46 46 46 45 43 42 41 40 39 38 36 34 33 32 32 31 31 31 31 31 31 31 31 30 30 29 29 28 28 28 28 28 29 29 29 29 29 29 30 30 31 32 33 34 35 36 37 37 38 39 39 40 40 40 40 40 40 39 38 37 36 36 35 34 34 33 33 32 32 32 32
50 49 49 49 48 47 46 46 46 46 45 45 45 45 45 45 45 45 45 43 41 40 39 38 37 36 35 33 32 32 32 32 32 32 32 32 32 31 31 30 29 29 28 28 28 28 28 28 28 28 28 28 28 29 29 30 32 33 34 35 36 37 37 38 39 39 39 40 40 39 39 38 37 35 34 34 33 32 31 31 30 30 30 29 29 30
49 48 48 48 47 47 46 45 45 45 45 45 45 45 44 44 43 44 44 43 41 39 38 37 36 36 36 35 34 34 34 34 33 33 32 32 32 32 31 30 30 29 29 28 28 28 28 28 28 28 27 27 28 28 29 31 32 33 34 35 36 37 38 38 38 39 39 38 38 37 36 34 33 32 31 30 30 29 29 28 28 28 27 27 28 28
47 47 47 47 46 46 45 45 45 44 44 44 44 44 44 43 42 42 42 42 41 40 39 37 36 36 36 36 36 36 36 36 35 34 33 33 33 33 32 31 30 30 29 29 28 28 28 28 27 27 27 27 27 28 29 31 33 34 35 35 36 37 37 37 37 37 36 35 34 33 32 31 30 29 28 28 27 27 26 26 26 26 26 26 27 27
46 46 46 46 45 45 45 44 44 44 44 43 43 43 43 43 42 41 41 41 40 40 39 39 38 37 36 37 38 38 38 37 36 35 35 34 34 34 33 33 32 31 30 29 29 28 28 28 27 27 26 26 27 28 30 32 33 34 35 35 36 36 36 35 34 33 32 31 30 29 28 27 27 26 26 26 25 25 25 25 25 25 25 26 26 27
45 45 45 45 45 44 44 44 43 43 43 43 42 42 42 42 41 40 40 40 40 40 40 40 39 39 38 38 38 39 40 39 38 36 35 35 34 34 34 34 33 31 31 30 29 28 28 27 27 26 25 26 27 29 30 32 33 34 34 35 34 33 32 31 29 28 27 26 25 25 24 24 24 24 24 24 24 24 24 24 25 25 25 26 26 27
44 44 44 45 44 44 43 43 42 42 42 42 41 41 41 40 40 39 40 40 40 40 40 41 41 40 39 39 39 40 40 40 39 37 36 35 34 34 34 34 33 32 31 30 29 28 27 26 26 25 25 25 27 29 31 32 33 33 33 32 31 29 27 26 25 24 23 23 22 22 22 22 22 22 22 22 22 23 23 24 24 24 25 25 26 27
43 43 44 44 44 43 42 42 41 41 41 40 40 40 39 39 39 39 39 40 40 41 42 42 43 42 41 39 39 39 39 39 38 38 37 35 34 33 34 34 34 32 31 29 28 27 26 25 24 24 24 25 27 29 30 31 31 31 30 28 27 25 23 22 21 21 21 21 20 20 20 20 20 20 21 21 21 22 22 23 23 24 24 25 26 26
43 43 43 44 43 42 41 41 40 40 39 39 39 38 38 38 38 39 39 40 41 42 43 44 44 44 43 41 38 37 37 37 38 38 37 35 34 33 33 34 34 33 30 29 27 27 26 24 23 23 24 25 27 28 29 30 29 28 26 24 23 21 20 20 19 19 19 19 19 19 19 20 20 20 20 21 21 22 22 23 23 24 24 25 25 26
42 42 42 43 42 41 40 39 39 38 38 38 37 37 37 38 38 39 40 41 42 42 43 44 44 44 44 42 39 36 35 35 36 37 37 36 34 33 33 33 34 32 30 28 27 26 25 24 23 23 23 24 26 27 28 28 27 25 23 21 19 19 18 18 18 18 18 18 19 19 19 20 20 21 21 22 22 22 23 23 24 24 25 25 26 26
42 41 41 41 41 40 39 38 37 37 37 37 37 37 38 38 38 39 40 41 42 42 43 43 43 43 43 41 38 35 34 34 35 36 37 36 35 33 33 33 33 32 30 28 26 26 25 23 22 22 22 23 25 26 26 26 24 22 20 18 18 17 17 17 18 18 18 19 19 19 20 21 21 22 22 23 23 23 24 24 24 25 25 25 26 26
41 40 39 39 39 39 38 37 36 35 35 36 36 37 38 38 39 40 40 41 41 42 42 42 42 42 41 39 37 34 33 33 35 36 37 37 35 33 33 33 33 32 29 27 26 26 25 23 22 21 21 22 23 24 24 23 22 20 18 17 17 17 17 17 18 18 19 19 20 20 21 22 22 23 23 24 24 25 25 25 26 26 26 26 26 27
40 39 38 37 37 37 36 35 34 34 34 35 36 37 38 39 39 40 40 41 41 41 41 41 40 40 39 37 35 33 32 33 35 37 38 38 36 34 33 34 34 32 30 28 27 26 25 23 21 20 20 21 22 23 23 22 20 18 17 16 16 16 17 17 18 18 19 20 21 21 22 23 23 24 25 25 26 26 27 27 27 28 28 28 28 28
38 37 36 35 35 34 34 34 33 33 33 34 36 37 38 39 39 40 40 40 40 40 39 39 38 38 37 36 34 32 32 33 34 37 39 39 38 35 34 34 34 33 31 29 27 26 24 22 21 20 19 19 20 21 21 20 18 17 16 16 16 16 17 17 18 19 19 20 21 22 23 24 24 25 26 26 27 27 28 28 29 29 30 30 30 30
36 35 34 33 33 32 33 33 33 33 34 34 35 37 38 38 39 39 39 38 38 38 38 38 37 37 36 35 34 33 32 33 34 37 39 40 39 37 35 34 34 33 31 29 28 26 24 21 20 19 19 18 18 19 19 18 17 16 16 16 16 16 17 17 18 19 20 21 22 23 24 24 25 26 26 27 28 28 29 30 30 31 32 32 32 32
33 33 32 31 31 31 31 32 33 33 34 35 35 36 37 37 38 38 37 37 37 37 37 37 37 36 36 35 34 34 33 33 34 36 38 40 39 38 35 35 35 34 32 30 29 27 24 21 19 19 18 17 17 17 17 17 16 16 16 16 16 16 17 18 19 20 21 22 23 24 24 25 26 27 27 28 29 29 30 31 31 32 33 33 34 35
31 31 30 30 30 30 31 31 32 33 34 34 35 36 36 36 36 36 36 36 35 36 36 37 37 37 37 36 36 35 34 33 34 35 37 39 39 38 36 35 35 35 33 31 29 27 25 22 19 18 17 16 15 15 16 16 16 16 16 16 16 17 17 18 19 20 21 23 24 24 25 26 27 27 28 29 29 30 30 31 31 32 33 34 35 36
29 29 29 29 29 29 30 31 31 32 32 33 34 34 35 35 35 35 34 34 34 35 36 37 37 38 37 37 37 36 34 33 33 34 36 38 39 38 36 35 35 35 34 32 30 28 26 22 19 18 16 14 13 14 15 16 16 17 17 17 17 17 18 19 20 21 22 23 24 25 26 27 28 28 29 30 30 31 31 31 32 32 33 35 36 37
27 27 27 28 28 29 29 30 30 30 31 31 32 33 34 34 34 34 33 33 33 34 35 36 37 38 38 38 38 37 35 33 33 33 35 37 39 39 37 36 36 36 36 34 31 29 27 23 20 18 16 14 12 12 13 15 16 17 18 18 18 19 19 20 21 22 23 24 25 26 27 28 29 29 30 31 31 31 31 31 32 33 34 36 37 39
26 26 27 27 28 29 29 29 29 29 30 30 31 31 32 33 33 32 32 32 33 34 34 36 37 38 38 39 38 37 35 33 32 33 35 37 38 39 38 37 37 37 37 35 32 28 26 24 21 19 16 14 13 12 13 14 16 17 18 19 19 20 20 21 22 23 24 25 25 26 27 28 29 30 30 31 31 31 31 31 32 33 35 36 38 40
25 25 26 27 27 28 28 28 28 29 29 30 30 30 31 31 31 31 31 32 33 33 34 35 36 37 38 39 38 36 34 32 31 32 35 37 38 38 38 37 36 37 37 37 33 29 25 23 22 20 18 16 14 13 13 14 16 17 19 19 20 20 21 22 22 23 24 25 25 26 27 28 29 30 30 30 30 30 31 31 32 34 35 37 39 41
24 25 25 26 26 27 27 28 28 28 28 29 29 29 29 29 30 30 31 31 32 32 33 34 35 36 37 38 38 36 34 31 30 32 34 36 37 38 37 36 36 36 37 38 36 32 26 22 21 21 20 18 16 15 15 15 16 17 18 19 20 20 21 21 22 23 23 24 25 26 27 28 29 29 30 30 30 30 30 31 32 34 36 38 40 42
24 25 25 25 26 26 27 27 27 28 28 28 28 28 28 28 28 29 29 30 31 32 33 34 34 35 35 36 36 36 34 31 30 31 33 35 36 37 37 36 36 36 36 38 39 37 32 25 21 20 21 20 18 16 15 16 16 17 19 19 20 20 20 21 22 23 23 24 25 26 27 28 29 29 29 29 29 30 30 31 32 34 37 39 41 42
25 25 25 25 26 26 26 27 27 27 27 27 27 27 27 27 27 28 28 29 30 31 33 33 34 34 34 34 34 35 34 31 30 30 32 34 36 36 36 36 36 36 36 37 39 40 38 33 26 22 21 20 19 18 17 17 17 18 19 20 20 20 20 21 22 23 24 24 25 26 27 28 28 29 29 29 29 29 30 30 32 34 37 39 41 42
25 25 25 25 26 26 26 26 27 27 27 26 26 26 26 26 26 27 28 29 30 31 32 32 33 33 33 33 33 33 32 31 29 29 31 33 35 36 36 36 37 37 37 38 38 39 40 38 34 29 25 22 21 20 20 19 19 20 20 21 21 21 21 22 23 24 24 25 25 26 27 28 28 28 29 28 29 29 29 31 32 34 36 38 40 41
25 25 25 25 26 26 26 26 26 26 26 26 26 25 25 25 26 26 27 28 29 30 30 31 32 32 33 33 34 33 32 30 28 28 29 31 34 35 36 36 37 38 38 39 39 40 40 39 37 34 31 26 23 22 23 22 22 21 21 22 23 23 23 23 24 25 25 25 26 27 27 28 28 29 28 28 28 29 30 31 32 34 35 37 38 39
25 25 25 25 25 25 25 25 26 26 26 25 25 25 25 25 25 26 27 27 28 28 29 29 30 31 32 33 34 34 32 29 28 27 28 30 32 34 35 36 36 37 39 40 40 41 41 40 38 37 35 32 28 25 25 25 24 23 23 23 24 24 24 25 25 26 26 26 27 27 28 29 29 29 29 29 29 29 30 31 33 34 34 35 35 36
24 24 24 25 25 25 25 25 25 25 25 25 25 25 25 25 25 26 26 26 27 27 27 28 28 29 30 32 33 33 32 30 28 26 26 28 30 32 34 35 36 36 38 39 40 41 41 40 39 37 37 36 33 30 27 26 25 25 24 24 24 25 25 25 26 27 27 27 28 28 29 30 30 30 30 29 29 30 31 32 32 33 33 33 34 34
24 24 24 25 25 25 25 25 25 25 25 25 25 25 25 25 25 26 26 26 26 26 27 27 27 28 29 30 31 31 31 29 28 26 26 27 29 31 33 34 35 35 36 38 39 40 40 41 40 38 37 36 35 34 32 29 28 27 26 26 25 25 25 25 26 27 28 28 29 29 30 30 31 31 31 30 30 31 31 32 32 32 32 32 32 32
24 24 24 25 25 25 25 25 25 25 25 25 25 25 25 26 26 26 26 26 26 26 26 27 27 28 28 28 28 28 28 28 27 26 26 27 28 30 32 34 35 35 35 36 37 38 39 40 40 39 38 36 35 35 34 33 31 30 29 27 27 26 26 26 27 28 28 29 30 30 30 31 31 31 31 31 32 32 32 32 31 30 30 30 29 29
24 24 24 25 25 25 25 25 25 26 26 26 26 26 27 27 27 27 27 26 26 26 27 27 28 27 27 26 25 25 26 26 26 26 26 26 27 29 31 33 34 35 35 35 36 36 37 38 38 38 38 37 36 35 33 33 33 32 32 30 28 27 27 27 28 28 29 30 30 30 31 31 31 31 32 32 32 32 32 31 30 28 28 27 27 26
24 24 25 25 25 25 25 26 26 26 27 27 28 28 28 28 28 28 27 27 26 27 27 27 27 26 25 24 24 23 24 24 24 25 25 26 27 28 30 32 33 34 35 35 35 35 35 36 36 35 35 36 36 35 34 33 33 33 33 33 32 30 28 28 28 29 29 30 30 31 31 31 31 31 32 32 32 32 31 30 28 26 26 25 25 25
24 25 25 25 25 25 25 26 26 27 28 28 29 29 29 30 30 29 28 27 27 27 27 27 26 25 24 23 22 22 22 23 23 24 24 25 26 28 29 31 33 34 35 35 35 34 34 34 34 33 33 33 34 34 34 33 33 33 34 35 34 32 30 29 29 29 30 30 30 30 31 31 31 31 31 32 31 30 29 27 26 24 24 24 23 22
25 25 26 26 25 25 25 26 27 28 29 29 30 30 30 31 31 30 30 29 28 28 27 27 27 26 24 23 22 21 21 21 22 23 24 25 26 27 29 30 32 33 34 34 34 34 33 32 32 32 32 32 33 33 33 33 33 33 34 34 34 33 31 29 28 29 29 29 29 29 30 30 31 31 31 31 30 28 27 25 24 23 22 22 21 20
26 26 26 26 26 25 26 26 27 28 29 30 30 30 31 31 31 31 30 30 29 29 28 28 27 27 27 26 24 23 22 21 22 22 23 24 25 27 28 29 30 31 32 33 34 33 32 31 31 30 30 30 31 32 33 33 33 32 33 33 34 34 33 30 28 28 28 28 28 28 29 29 30 30 30 30 28 26 24 22 21 21 20 20 18 18
26 26 26 26 25 26 26 27 28 29 30 30 31 31 30 30 30 31 31 30 30 29 28 27 27 28 28 28 27 26 24 23 23 22 23 24 25 26 27 28 29 30 31 31 32 33 32 31 30 29 28 28 29 30 31 32 32 32 32 32 32 33 33 32 30 28 27 26 26 26 27 28 28 29 28 27 26 24 22 21 20 19 18 18 17 17
26 26 25 25 25 26 27 28 29 30 30 31 31 31 30 30 30 31 31 31 30 28 28 27 28 29 29 30 30 29 28 26 25 24 23 23 24 25 26 27 28 29 30 30 31 31 31 31 29 28 27 27 27 28 29 30 31 31 32 32 32 32 31 30 29 28 27 26 25 24 25 26 26 27 27 26 24 21 20 19 18 17 17 17 17 18
25 25 25 25 26 27 28 29 30 31 31 31 31 31 31 30 31 31 31 30 30 28 27 27 28 29 30 31 31 31 30 29 28 26 25 25 25 25 26 27 28 29 29 29 30 30 29 29 28 27 27 26 26 26 27 28 29 30 31 31 31 31 30 29 28 27 26 26 25 24 24 24 25 25 26 25 23 20 18 17 16 16 16 17 18 20
25 25 25 26 27 28 28 29 30 31 32 32 32 31 31 31 31 31 31 30 29 28 27 27 28 29 30 31 31 32 32 32 31 29 28 27 27 27 27 28 28 28 29 29 29 29 28 27 26 26 26 26 26 26 26 26 27 29 30 31 31 30 29 28 26 26 25 25 24 24 24 24 25 25 25 24 22 19 16 15 14 15 16 17 19 21
25 25 26 27 27 28 29 30 31 31 32 32 32 32 31 31 31 31 30 29 28 27 27 28 28 29 30 31 31 32 32 32 32 31 31 30 29 29 29 29 29 29 29 29 28 28 27 25 24 24 24 26 27 27 27 27 27 28 29 30 30 30 29 28 26 25 24 24 24 24 24 25 26 26 25 24 21 17 15 13 13 14 15 17 19 21
25 26 27 27 28 29 29 30 31 32 32 33 33 32 32 31 30 30 29 28 27 27 27 28 29 30 30 31 31 32 32 32 32 32 31 31 31 31 31 31 31 31 30 29 28 27 25 23 22 22 23 24 26 28 28 28 28 29 29 30 31 31 30 29 27 25 24 23 23 23 24 25 26 26 26 24 20 16 13 12 13 13 15 17 18 20
25 26 27 28 28 29 30 31 31 32 33 33 33 32 31 30 29 29 28 27 27 27 27 28 29 30 31 31 32 32 33 33 33 32 32 32 32 32 32 32 33 33 32 31 29 27 26 23 20 19 20 22 25 28 29 30 30 30 30 31 31 31 31 30 28 25 24 23 23 23 24 25 25 25 24 22 19 16 13 12 12 13 15 16 17 17
25 26 27 28 29 30 30 31 32 33 33 33 32 32 31 30 29 28 27 27 27 27 27 28 29 30 31 32 32 33 33 33 33 33 33 32 32 33 33 33 34 34 34 33 31 30 28 25 21 18 17 19 22 25 28 29 30 31 31 31 31 32 31 30 28 25 23 23 23 23 24 24 24 23 22 21 18 16 14 13 13 14 15 16 15 15
Wind_Direction
311 311 310 310 310 310 309 309 309 309 308 308 308 308 307 307 306 306 306 306 306 307 307 307 308 309 309 309 308 307 305 303 302 301 299 297 295 294 292 291 290 289 288 288 288 289 289 290 290 290 290 290 290 290 290 290 289 289 289 288 288 287 287 286 286 285 285 284 284 283 283 283 283 282 282 281 279 277 273 270 267 266 265 264 264 264
311 311 310 310 310 310 309 309 309 309 308 308 308 307 307 307 307 307 308 308 309 309 309 310 310 311 311 310 309 308 306 305 304 303 301 299 297 296 294 293 292 291 291 291 292 292 293 293 293 293 293 292 292 291 291 291 290 290 290 289 289 288 287 287 286 286 285 285 285 285 284 284 284 284 283 282 281 279 277 274 271 269 267 266 265 264
311 311 310 310 310 310 309 309 309 309 308 308 308 308 308 309 309 309 310 311 311 311 312 312 312 312 312 311 310 309 308 308 307 306 304 303 301 299 298 296 295 295 294 294 295 295 295 294 294 293 293 292 291 290 290 289 289 289 288 288 287 287 286 286 286 285 285 285 285 285 285 285 285 285 284 284 283 282 280 278 275 272 269 267 266 264
311 311 310 310 310 310 309 309 309 309 309 309 309 310 311 312 312 312 313 313 312 312 313 314 314 314 313 313 312 312 311 311 310 310 308 307 305 303 301 299 297 296 296 295 295 295 294 294 293 292 291 290 289 288 288 287 287 286 286 285 285 284 284 284 284 284 284 284 285 285 285 285 285 285 285 284 284 283 282 280 278 275 273 270 268 266
311 311 311 310 310 310 310 310 310 310 310 311 312 313 314 314 314 314 314 314 314 313 314 314 315 315 315 315 314 314 314 314 313 313 311 309 306 304 301 299 297 296 295 295 295 294 294 293 292 291 290 289 288 287 287 286 286 285 284 284 283 283 282 282 283 283 283 284 284 284 285 285 285 285 285 285 285 284 283 282 280 278 276 273 271 268
311 311 311 311 311 310 311 311 311 312 313 314 315 316 316 315 315 315 315 315 314 314 315 316 316 317 317 317 317 316 316 316 315 313 311 308 305 302 300 298 296 295 295 295 295 294 293 293 292 291 290 289 288 287 287 286 285 284 283 282 282 281 281 282 282 282 283 283 284 284 285 285 286 286 286 286 286 285 284 283 282 280 278 276 273 271
312 311 311 311 311 311 312 312 313 314 316 317 317 317 316 316 315 315 314 314 315 315 316 317 317 318 318 318 318 317 316 316 314 312 310 307 304 301 299 297 296 296 296 296 295 295 295 294 293 292 291 290 289 288 287 285 284 283 282 281 281 281 281 281 282 282 283 284 285 285 286 287 287 287 287 287 286 286 285 284 282 281 279 277 275 273
312 312 312 312 312 312 313 314 315 317 318 318 317 317 316 316 315 315 314 314 315 316 317 318 318 318 318 318 317 317 316 315 314 312 310 307 304 301 299 298 297 297 297 297 297 297 297 297 296 295 293 292 290 289 287 285 283 282 281 281 281 281 281 282 283 284 285 286 286 287 288 288 289 289 289 288 287 286 285 284 283 282 280 279 277 275
312 312 312 312 313 314 314 315 317 319 319 319 317 316 316 315 315 315 315 315 316 317 318 318 318 318 317 317 317 316 316 315 315 313 311 308 305 303 301 300 300 300 300 300 301 301 301 300 299 298 296 294 291 289 287 285 283 282 281 281 281 282 283 284 285 286 287 288 289 290 290 291 291 291 290 289 288 287 286 285 284 282 281 280 278 277
313 313 313 313 314 315 316 317 318 319 319 318 317 315 315 315 315 315 316 316 317 318 318 318 318 318 317 317 317 317 316 316 315 314 312 309 307 305 303 303 303 303 303 303 304 304 304 304 302 300 298 295 292 290 287 285 283 283 282 283 283 284 285 287 288 289 290 291 292 292 292 293 293 292 292 290 289 288 287 285 284 283 282 280 278 277
314 314 314 314 315 316 317 318 318 318 318 317 316 315 315 316 316 316 316 316 317 318 318 318 318 318 318 318 318 318 317 317 316 314 312 310 308 306 306 305 305 306 306 306 306 307 307 306 304 302 299 296 293 290 287 285 284 284 284 285 286 287 289 290 291 292 293 293 294 294 294 294 294 293 292 291 290 289 288 286 285 284 282 280 278 276
314 314 315 315 315 316 318 318 318 317 317 316 315 315 316 316 317 317 316 316 317 318 318 318 318 318 318 318 318 318 318 318 317 315 313 311 309 308 308 308 307 308 308 308 308 309 309 307 305 302 299 296 293 290 288 286 286 286 286 288 289 290 291 292 293 294 294 295 295 295 295 295 295 294 293 292 291 290 289 288 286 284 282 280 278 276
315 315 315 315 315 316 317 318 317 317 317 317 316 316 316 317 317 317 316 316 317 318 318 318 318 318 318 319 319 319 319 319 318 316 314 312 311 311 310 310 310 310 310 310 310 311 310 308 306 303 300 297 294 291 289 287 287 288 289 290 291 292 294 294 295 296 296 296 296 296 296 296 295 295 294 293 292 291 290 288 287 285 283 280 278 276
314 314 314 314 315 316 317 317 317 317 317 317 317 316 316 317 317 317 317 316 317 317 317 317 317 318 318 319 320 321 321 320 318 315 313 312 312 312 312 312 311 311 312 312 312 312 311 309 306 303 300 297 294 291 289 289 289 290 291 292 294 295 296 297 298 298 298 298 298 297 297 296 296 295 295 294 294 293 292 290 288 286 284 282 279 277
314 314 313 314 315 316 318 318 317 317 317 317 317 317 317 317 317 317 316 316 317 317 317 317 317 317 318 320 321 322 321 320 317 315 313 312 312 313 314 313 312 312 313 313 313 312 311 309 306 304 301 298 295 292 291 291 292 293 294 295 297 299 300 300 301 300 300 299 299 299 298 298 298 298 298 298 297 296 295 294 292 290 288 285 282 280
313 313 314 315 316 317 318 318 317 317 317 317 317 316 316 316 317 317 317 317 317 317 317 317 317 317 318 320 322 323 322 320 317 314 313 312 313 314 315 314 313 313 313 314 313 312 310 308 307 305 303 300 296 294 293 293 294 296 297 299 301 302 303 303 302 302 302 302 302 303 303 303 304 304 304 304 303 302 300 299 297 295 293 290 288 285
313 314 315 315 316 317 317 317 317 317 316 316 316 316 316 316 317 317 317 317 317 317 317 317 317 317 318 320 322 323 322 320 316 314 313 312 313 315 316 315 314 313 314 314 313 312 311 310 309 308 306 303 299 296 295 296 297 299 300 302 304 305 304 304 304 304 305 306 307 308 309 309 310 310 309 309 308 306 305 304 302 300 297 295 293 290
313 314 315 316 316 316 317 317 317 317 316 316 316 316 316 317 317 317 316 316 316 316 316 316 317 317 318 319 322 324 323 320 317 315 314 314 315 316 317 316 314 314 314 314 314 314 313 312 313 312 310 305 301 298 297 298 299 301 303 305 305 306 306 306 307 308 309 310 311 312 313 313 313 313 313 312 311 310 309 307 305 303 301 299 296 293
314 315 315 316 316 315 316 316 317 317 317 317 316 316 316 316 316 316 315 315 315 315 315 316 316 317 317 319 322 324 323 321 319 317 316 316 317 318 319 317 316 315 315 316 317 316 315 315 315 315 312 307 302 299 298 299 301 303 305 306 306 307 307 309 310 311 312 313 314 315 315 315 315 315 315 314 313 312 311 309 307 305 303 301 298 296
314 314 315 315 315 315 315 316 317 317 317 316 316 316 315 315 315 315 315 315 315 315 316 316 316 317 318 319 322 324 325 323 321 319 318 317 319 321 322 320 319 318 318 319 319 318 317 316 317 317 315 309 304 300 300 301 302 304 306 307 307 308 309 311 312 313 314 315 315 316 316 316 316 316 315 315 314 313 311 310 308 306 304 302 300 297
313 314 315 315 314 314 315 316 317 317 316 315 315 314 314 314 314 315 315 315 315 315 316 316 316 317 318 319 322 325 326 325 323 321 320 319 320 323 324 323 321 320 320 320 320 319 317 318 319 321 319 313 306 302 300 301 303 304 305 306 307 309 310 311 313 314 315 316 316 316 316 316 316 315 315 314 313 312 311 309 308 306 304 302 300 298
313 313 314 314 314 314 315 315 316 316 315 314 313 313 313 314 314 314 315 315 315 316 316 315 316 317 318 320 323 326 328 328 326 323 321 321 322 324 326 325 323 321 321 321 321 319 319 320 323 325 322 315 306 301 299 299 300 301 302 304 306 308 310 311 312 313 314 315 315 315 315 315 314 314 313 312 311 310 309 308 307 306 304 303 301 299
312 313 314 314 314 314 314 315 315 315 314 313 313 313 313 313 313 314 315 316 316 316 316 315 316 318 319 322 324 327 329 329 327 324 322 320 321 323 326 325 323 322 322 323 322 321 320 321 325 327 324 315 306 299 296 296 296 297 299 302 304 307 309 310 311 312 312 312 312 312 312 312 312 312 311 310 309 309 308 307 306 305 304 303 301 300
313 314 314 315 314 314 314 314 314 314 314 313 313 313 313 313 314 314 316 316 316 316 316 316 317 319 321 323 325 327 329 329 327 324 321 319 320 322 325 325 324 322 322 323 324 322 321 323 327 329 326 316 305 297 293 291 291 292 295 298 301 303 305 307 308 308 309 309 310 310 310 310 310 309 308 307 306 305 305 304 304 304 303 302 301 300
314 315 315 314 314 313 313 313 313 313 313 313 313 313 313 313 314 315 316 317 317 317 317 318 319 320 322 323 325 327 328 329 327 324 321 319 318 320 324 325 324 323 323 324 324 323 322 323 327 330 326 317 305 294 288 286 286 288 290 294 297 299 301 302 304 305 306 307 307 308 308 307 306 305 304 303 302 302 301 302 302 302 302 301 300 299
315 314 314 313 312 311 311 311 312 312 313 313 313 313 314 314 315 316 317 317 317 317 318 318 319 321 323 323 324 326 328 329 328 324 321 318 318 320 323 325 325 324 324 324 324 324 323 324 327 329 327 319 305 292 285 282 282 284 287 290 292 295 297 298 300 302 303 304 305 305 305 304 303 302 301 300 299 299 300 301 301 302 301 301 299 299
314 313 312 311 310 310 310 311 312 313 313 314 314 315 315 316 316 317 318 318 318 317 318 318 319 321 322 322 323 325 328 330 329 325 321 319 318 320 323 325 326 325 324 323 324 324 323 324 326 328 327 322 310 295 285 281 279 281 284 286 289 292 294 296 298 300 301 302 303 303 303 302 301 300 299 298 298 299 300 301 302 302 301 300 299 298
312 311 310 310 310 311 311 313 314 315 316 316 316 316 316 317 317 317 317 317 317 318 318 318 319 320 321 321 323 325 329 331 331 327 323 320 319 320 323 325 325 325 324 323 322 321 321 323 324 326 327 324 317 305 293 284 280 280 281 284 287 290 292 295 297 298 300 301 302 302 302 301 300 299 299 299 299 300 300 301 302 302 301 300 299 298
311 311 311 312 312 313 314 316 317 318 318 319 318 318 317 317 317 317 317 318 318 317 317 317 318 318 319 320 322 325 329 333 332 328 323 321 319 320 322 323 324 324 323 322 321 319 320 322 325 326 327 326 322 314 303 291 284 281 280 281 284 287 290 292 294 296 298 300 301 301 301 301 301 300 300 300 300 300 301 302 302 302 301 299 299 298
313 313 313 314 315 316 317 318 319 320 320 320 319 319 318 318 317 318 318 318 318 317 316 316 316 317 319 320 321 324 329 333 333 328 323 320 319 319 321 322 322 323 323 322 321 319 319 321 324 326 325 326 324 320 311 300 290 284 282 281 282 284 287 290 292 295 297 299 301 302 302 303 303 302 302 301 301 301 302 302 302 302 300 299 298 298
316 317 317 317 318 318 319 319 320 321 321 321 320 319 319 319 318 318 318 317 316 315 315 315 316 317 318 319 320 323 327 332 333 328 323 320 319 319 320 321 321 322 322 322 321 320 319 319 322 324 323 324 324 322 317 308 299 292 287 285 285 286 287 290 292 294 297 299 302 303 305 305 305 305 304 303 302 302 302 302 302 301 300 299 299 298
319 319 320 320 319 320 320 320 321 321 322 322 321 321 320 319 319 318 317 316 315 314 314 315 315 316 317 318 319 321 325 330 331 328 324 321 320 320 321 321 321 321 320 320 319 319 318 318 319 321 322 323 325 325 321 315 307 300 295 292 290 290 291 292 294 296 299 301 303 306 307 308 308 307 306 305 304 303 302 302 302 301 300 299 298 298
321 321 321 321 320 320 320 320 321 322 323 323 323 322 321 320 319 318 317 316 315 314 314 314 315 316 316 317 317 319 323 328 330 329 325 322 321 321 321 321 320 320 320 319 318 317 316 317 317 319 320 322 325 326 324 319 312 306 301 298 296 295 295 296 297 298 300 302 305 307 309 309 309 309 308 306 305 304 303 302 302 301 300 299 298 297
323 322 322 321 320 320 320 321 322 323 324 325 325 324 323 321 320 318 317 316 315 314 314 314 314 315 316 316 317 319 322 327 329 328 325 323 321 321 321 321 321 321 321 320 319 318 317 316 317 318 318 320 322 324 324 321 316 310 306 303 301 299 299 299 299 300 301 303 306 308 310 310 310 310 309 307 306 304 303 302 301 301 300 299 297 295
323 323 321 321 320 320 320 322 323 325 326 327 327 326 325 323 322 320 318 317 316 315 315 314 314 314 315 316 316 318 321 324 327 326 325 322 321 320 320 321 322 322 321 320 320 319 317 317 317 317 317 318 319 322 322 320 317 313 309 306 304 303 302 302 301 302 302 304 307 309 311 311 312 311 310 308 306 304 303 302 302 301 300 298 295 293
323 322 321 320 320 320 321 323 324 326 327 328 328 328 327 325 324 322 320 319 317 316 315 315 314 314 314 315 315 317 319 322 324 324 324 322 320 319 319 320 322 322 321 321 320 319 318 317 317 317 317 317 317 319 320 319 317 314 311 308 306 304 304 303 303 303 304 306 308 310 312 313 313 313 311 310 307 305 304 303 303 301 300 297 294 291
322 322 321 321 321 322 323 324 326 327 328 329 329 329 328 327 325 324 322 320 319 317 316 315 314 314 314 315 316 317 319 321 322 323 323 321 320 319 319 320 321 321 320 320 319 318 317 317 317 316 316 315 316 316 318 318 317 315 313 310 308 307 306 305 305 306 307 308 311 312 314 315 315 314 312 310 308 306 305 304 304 303 301 298 294 290
321 322 322 322 323 323 324 326 327 328 329 330 330 330 329 328 326 324 322 321 319 318 316 315 315 316 317 318 319 320 320 321 322 322 322 321 320 319 319 319 320 320 319 318 318 318 317 316 316 316 315 315 314 314 315 316 316 316 314 312 311 310 309 309 308 309 310 312 313 315 316 316 315 314 313 311 309 308 307 307 306 306 303 300 296 293
322 322 323 324 325 325 326 326 327 329 330 331 331 331 330 328 326 324 322 321 320 319 318 318 318 319 322 324 325 325 324 323 322 322 322 322 321 320 319 319 319 319 318 317 317 317 316 316 315 315 314 313 313 313 314 314 316 316 316 314 313 312 312 312 312 313 314 315 316 317 317 317 315 314 313 312 311 310 310 310 310 310 308 304 301 299
322 323 325 326 326 327 327 327 328 329 331 332 333 332 331 328 326 325 324 323 323 322 322 321 322 324 327 330 331 330 328 326 324 324 323 323 321 320 319 318 318 317 317 317 316 316 316 316 314 314 313 312 311 311 312 314 316 317 317 316 315 315 316 315 316 316 317 317 318 318 318 317 316 314 313 312 312 312 312 313 314 314 312 309 307 306
323 325 326 327 327 327 328 328 329 331 332 334 334 333 332 330 328 327 327 327 327 327 327 327 327 329 332 336 337 335 332 330 328 327 326 325 323 321 319 318 317 317 316 317 317 318 318 317 315 314 313 311 310 310 312 314 316 317 317 316 316 316 316 317 318 319 318 319 319 319 318 317 315 314 312 312 312 313 314 317 318 317 315 312 310 311
324 326 327 327 328 329 329 329 331 332 334 335 335 335 334 333 332 331 331 332 332 333 333 333 333 334 336 338 340 339 338 336 334 332 330 328 325 322 320 319 317 317 316 317 318 319 319 318 317 316 314 312 311 310 311 314 315 316 316 315 315 315 315 317 319 319 320 320 320 319 318 316 314 313 312 312 312 314 317 320 322 321 317 313 313 316
325 326 327 328 329 330 330 331 332 333 335 335 336 336 336 336 335 335 335 335 335 335 335 335 335 336 337 338 340 341 342 341 339 336 333 330 327 324 321 319 318 317 317 317 318 319 320 319 318 317 315 313 311 311 311 313 314 315 315 314 314 314 314 317 319 320 320 320 320 319 317 315 314 312 312 312 314 317 320 324 324 322 318 315 316 320
326 327 328 329 330 331 332 333 333 334 335 336 337 338 338 338 337 337 336 336 336 336 336 336 336 336 336 337 338 340 342 342 341 339 336 332 329 325 323 321 319 318 318 318 319 320 320 320 319 317 315 312 311 311 311 312 313 313 313 313 312 313 314 317 319 321 321 320 320 318 316 315 313 313 313 314 317 321 325 327 327 323 318 316 318 320
327 328 329 331 333 334 334 334 334 335 336 337 338 339 339 339 338 337 337 336 335 335 336 336 336 336 336 337 338 338 339 340 340 339 337 334 331 328 326 324 322 321 321 320 320 321 320 320 319 317 314 311 310 310 311 312 312 313 312 312 312 312 313 316 319 320 321 320 319 318 317 316 316 315 316 318 321 325 329 331 329 324 319 317 318 318
328 330 332 334 335 336 335 335 334 335 336 337 338 339 339 338 337 336 336 335 334 334 335 336 336 336 336 337 337 337 337 337 337 337 337 336 334 332 330 328 326 325 324 323 322 321 321 320 319 317 315 312 310 310 312 313 313 313 312 312 312 312 314 317 319 321 322 321 321 320 320 320 320 321 322 323 325 328 331 333 331 326 323 322 321 318
330 333 335 336 337 336 336 335 334 334 335 336 337 338 338 337 336 336 335 335 334 334 335 336 337 336 336 336 336 336 335 335 336 337 338 338 337 336 334 333 331 329 327 325 324 322 321 320 320 319 318 315 313 312 313 314 315 314 313 313 313 314 316 319 322 324 324 324 324 324 324 325 325 326 326 326 327 328 331 332 331 328 327 326 325 321
334 336 337 337 337 336 335 334 334 333 334 335 336 337 337 337 336 335 335 335 335 335 336 336 336 336 335 335 335 335 335 335 336 338 339 340 340 339 338 336 334 332 330 327 325 323 323 323 323 323 322 320 318 317 316 317 318 317 316 316 316 317 319 322 325 327 327 328 328 328 328 329 329 329 329 328 327 328 331 332 330 328 327 327 325 322
337 338 338 337 336 335 334 333 333 333 333 334 335 336 336 337 337 336 336 335 335 336 336 337 336 335 334 334 334 334 335 336 337 338 340 341 341 340 339 338 337 334 331 329 326 325 324 324 326 327 328 326 324 322 321 322 322 322 320 320 320 320 321 324 327 329 330 330 330 330 330 330 330 330 329 328 329 330 332 332 330 327 326 325 323 320
340 340 338 337 335 334 333 333 332 333 333 334 334 335 336 337 338 338 337 337 336 337 337 336 335 334 333 333 334 335 336 337 338 339 340 341 341 340 340 339 338 336 333 330 329 328 328 327 328 330 332 331 329 327 327 327 326 325 324 322 321 321 323 325 328 331 333 333 332 331 330 330 330 329 328 329 331 334 334 333 331 328 324 322 321 319
341 339 338 336 334 333 332 332 332 332 333 333 334 335 337 338 339 339 338 337 337 336 336 335 334 333 333 333 334 335 337 338 339 339 340 340 340 340 339 339 338 336 334 332 332 332 332 331 330 330 335 337 335 332 331 331 329 327 324 322 321 322 323 325 328 332 334 334 333 332 330 329 329 328 329 332 334 336 336 334 333 328 322 318 316 315
Height
2955 2952 2950 2947 2945 2943 2939 2937 2935 2934 2931 2928 2925 2924 2922 2920 2918 2915 2914 2913 2911 2909 2907 2905 2904 2902 2901 2900 2899 2897 2895 2894 2892 2891 2889 2888 2886 2885 2884 2883 2881 2880 2879 2878 2876 2875 2875 2873 2872 2871 2870 2869 2868 2867 2867 2866 2865 2864 2864 2863 2862 2862 2861 2860 2860 2859 2858 2858 2857 2856 2855 2854 2854 2853 2852 2851 2851 2851 2851 2851 2850 2850 2849 2849 2849 2850
2951 2948 2945 2943 2941 2939 2936 2933 2931 2929 2927 2925 2922 2920 2918 2916 2914 2912 2910 2909 2907 2905 2904 2902 2900 2899 2897 2896 2895 2894 2892 2890 2889 2888 2886 2885 2884 2882 2881 2880 2879 2878 2876 2875 2874 2873 2872 2870 2870 2868 2867 2866 2865 2864 2863 2862 2861 2861 2860 2859 2859 2858 2857 2856 2856 2855 2854 2854 2853 2852 2851 2851 2850 2849 2848 2848 2847 2847 2847 2847 2846 2846 2846 2846 2846 2846
2947 2944 2941 2939 2937 2935 2933 2930 2928 2925 2923 2921 2919 2917 2915 2913 2910 2909 2907 2905 2903 2901 2900 2899 2897 2896 2894 2893 2891 2890 2889 2888 2886 2885 2884 2882 2881 2880 2879 2878 2876 2875 2874 2873 2871 2870 2869 2868 2867 2865 2864 2863 2862 2861 2860 2859 2858 2857 2856 2855 2855 2854 2853 2852 2852 2851 2850 2850 2849 2848 2848 2847 2846 2845 2845 2844 2843 2843 2843 2842 2842 2842 2842 2842 2842 2842
2943 2941 2937 2935 2933 2931 2929 2927 2925 2922 2920 2917 2915 2913 2911 2909 2907 2905 2903 2902 2900 2898 2897 2895 2894 2892 2891 2889 2888 2887 2886 2885 2884 2882 2881 2880 2879 2878 2876 2875 2874 2873 2871 2870 2869 2868 2867 2865 2864 2863 2861 2860 2859 2858 2857 2856 2855 2854 2853 2852 2851 2850 2850 2849 2848 2848 2847 2846 2845 2845 2844 2843 2842 2842 2841 2840 2840 2839 2839 2839 2838 2838 2838 2837 2837 2837
2939 2937 2934 2931 2929 2927 2925 2923 2921 2919 2916 2914 2911 2910 2908 2905 2903 2901 2900 2898 2897 2895 2894 2892 2891 2889 2888 2886 2885 2884 2883 2882 2881 2880 2879 2878 2876 2875 2874 2873 2872 2870 2869 2868 2867 2865 2864 2863 2861 2860 2859 2857 2856 2855 2854 2852 2851 2850 2850 2848 2847 2847 2846 2845 2845 2844 2843 2842 2842 2841 2840 2840 2839 2838 2837 2837 2836 2835 2835 2835 2834 2834 2834 2833 2833 2833
2935 2933 2931 2928 2925 2923 2921 2919 2917 2915 2913 2910 2907 2906 2905 2903 2901 2899 2897 2895 2893 2892 2891 2890 2888 2887 2885 2883 2882 2881 2880 2880 2879 2878 2877 2875 2874 2873 2872 2870 2869 2868 2867 2865 2864 2863 2862 2860 2859 2857 2856 2854 2853 2852 2850 2849 2848 2847 2846 2845 2844 2843 2842 2842 2841 2840 2840 2839 2838 2837 2837 2836 2835 2834 2834 2833 2832 2832 2831 2830 2830 2830 2830 2829 2829 2829
2930 2928 2926 2925 2922 2920 2917 2915 2914 2912 2910 2907 2904 2902 2901 2900 2898 2896 2895 2892 2890 2889 2887 2886 2885 2884 2883 2881 2880 2879 2878 2877 2876 2875 2874 2873 2872 2870 2869 2868 2867 2865 2864 2863 2862 2860 2859 2857 2856 2855 2853 2851 2850 2849 2847 2846 2845 2844 2843 2842 2841 2840 2839 2838 2837 2837 2836 2835 2835 2834 2833 2832 2831 2831 2830 2829 2828 2828 2827 2827 2826 2826 2826 2825 2825 2825
2927 2925 2922 2920 2919 2916 2914 2911 2910 2909 2908 2905 2902 2899 2898 2896 2895 2893 2892 2890 2889 2886 2885 2883 2882 2881 2880 2879 2878 2877 2876 2875 2874 2873 2871 2870 2869 2867 2866 2865 2864 2863 2861 2860 2859 2858 2856 2855 2853 2851 2850 2848 2847 2846 2845 2843 2842 2840 2840 2838 2837 2837 2836 2835 2834 2834 2833 2832 2831 2830 2830 2829 2828 2827 2826 2825 2825 2824 2824 2823 2823 2822 2822 2822 2821 2821
2924 2922 2920 2917 2915 2913 2912 2909 2907 2905 2905 2903 2900 2898 2895 2893 2891 2889 2888 2887 2886 2885 2883 2881 2880 2879 2878 2877 2876 2874 2873 2872 2871 2870 2868 2867 2865 2864 2863 2862 2861 2860 2859 2857 2856 2855 2853 2851 2850 2848 2847 2845 2844 2843 2841 2840 2839 2838 2836 2835 2835 2834 2833 2832 2831 2830 2830 2829 2828 2827 2826 2825 2824 2823 2822 2822 2821 2820 2820 2820 2819 2819 2818 2818 2818 2818
2920 2918 2916 2914 2912 2910 2909 2907 2905 2903 2902 2900 2897 2895 2894 2892 2889 2886 2884 2883 2883 2883 2881 2879 2877 2876 2875 2874 2873 2872 2870 2870 2869 2867 2866 2864 2862 2861 2860 2859 2858 2857 2856 2855 2853 2852 2850 2849 2847 2845 2844 2843 2841 2840 2839 2837 2836 2835 2833 2832 2831 2830 2830 2829 2828 2827 2826 2825 2824 2823 2822 2821 2820 2820 2819 2818 2818 2817 2817 2816 2815 2815 2815 2815 2814 2814
2917 2915 2913 2911 2909 2907 2906 2905 2903 2901 2900 2898 2895 2893 2891 2890 2888 2885 2882 2880 2880 2879 2878 2877 2876 2874 2872 2871 2870 2869 2868 2867 2865 2864 2863 2861 2860 2858 2857 2856 2855 2854 2853 2852 2850 2849 2847 2846 2844 2843 2841 2840 2839 2837 2835 2834 2833 2831 2830 2829 2828 2827 2826 2825 2825 2824 2823 2822 2821 2820 2819 2818 2817 2816 2816 2815 2815 2814 2814 2813 2812 2812 2812 2811 2811 2810
2914 2912 2910 2908 2907 2905 2903 2902 2900 2899 2897 2895 2893 2890 2888 2887 2885 2884 2881 2878 2877 2876 2875 2874 2873 2872 2870 2869 2867 2866 2865 2864 2862 2861 2860 2858 2856 2855 2854 2853 2852 2851 2850 2849 2847 2846 2845 2843 2841 2840 2839 2837 2836 2834 2833 2831 2830 2829 2827 2826 2825 2824 2823 2823 2822 2820 2820 2819 2817 2816 2815 2815 2814 2814 2813 2812 2812 2811 2810 2810 2809 2809 2809 2808 2808 2807
2911 2910 2908 2906 2904 2903 2902 2900 2898 2895 2894 2892 2890 2888 2885 2884 2883 2881 2879 2877 2875 2874 2872 2871 2870 2870 2869 2867 2865 2863 2862 2860 2859 2858 2856 2855 2853 2852 2850 2849 2848 2848 2846 2845 2844 2843 2841 2840 2838 2837 2836 2834 2833 2831 2830 2828 2827 2825 2825 2824 2822 2821 2820 2820 2819 2818 2816 2815 2815 2814 2813 2812 2811 2811 2810 2810 2809 2808 2807 2807 2806 2806 2805 2805 2804 2804
2910 2907 2905 2903 2902 2901 2900 2898 2895 2893 2891 2890 2888 2886 2884 2882 2880 2879 2877 2875 2873 2872 2870 2869 2867 2866 2866 2865 2863 2861 2859 2857 2856 2855 2854 2852 2851 2849 2847 2846 2845 2845 2844 2842 2841 2840 2838 2837 2835 2834 2833 2832 2830 2828 2827 2825 2824 2823 2822 2821 2820 2819 2818 2817 2816 2815 2814 2813 2812 2811 2810 2810 2809 2808 2807 2807 2806 2805 2805 2804 2803 2803 2802 2801 2801 2801
2907 2905 2903 2901 2900 2899 2897 2895 2893 2891 2889 2888 2886 2884 2882 2880 2879 2877 2875 2873 2871 2870 2868 2866 2865 2864 2863 2863 2861 2859 2857 2854 2853 2851 2850 2850 2849 2847 2845 2843 2842 2841 2841 2840 2838 2837 2835 2834 2832 2831 2830 2829 2827 2825 2824 2822 2821 2820 2819 2818 2817 2816 2815 2814 2813 2812 2811 2810 2809 2809 2808 2807 2806 2806 2805 2804 2804 2803 2802 2802 2801 2800 2800 2799 2798 2798
2905 2903 2901 2899 2897 2896 2895 2893 2891 2889 2887 2885 2884 2882 2880 2878 2877 2875 2873 2871 2869 2867 2865 2863 2861 2860 2860 2860 2860 2858 2855 2852 2850 2848 2847 2846 2846 2845 2843 2840 2839 2838 2838 2837 2835 2834 2833 2831 2830 2829 2827 2826 2824 2823 2821 2820 2819 2818 2816 2815 2815 2813 2812 2811 2810 2810 2809 2808 2807 2806 2806 2805 2805 2804 2803 2802 2802 2801 2800 2800 2799 2798 2797 2796 2796 2795
2903 2901 2899 2897 2895 2894 2892 2891 2889 2887 2885 2884 2882 2880 2879 2876 2875 2873 2871 2869 2867 2865 2863 2861 2859 2857 2856 2856 2857 2857 2854 2850 2847 2845 2844 2843 2843 2843 2841 2838 2836 2835 2835 2834 2833 2831 2830 2829 2827 2826 2825 2823 2821 2820 2818 2817 2816 2815 2814 2813 2812 2811 2810 2809 2808 2807 2806 2806 2805 2805 2804 2803 2803 2802 2801 2800 2800 2799 2798 2797 2796 2795 2795 2794 2794 2793
2900 2899 2897 2895 2893 2891 2890 2889 2887 2885 2883 2881 2880 2878 2876 2875 2873 2871 2870 2867 2865 2863 2861 2860 2858 2856 2854 2853 2853 2854 2852 2848 2845 2842 2841 2840 2840 2840 2839 2836 2834 2833 2832 2831 2830 2829 2827 2826 2825 2824 2822 2820 2819 2817 2816 2815 2814 2813 2812 2811 2810 2809 2808 2807 2806 2805 2805 2804 2804 2803 2802 2801 2801 2800 2799 2798 2797 2796 2796 2795 2794 2793 2792 2792 2791 2790
2898 2897 2895 2893 2891 2889 2888 2887 2885 2884 2881 2879 2877 2876 2874 2873 2871 2870 2868 2866 2864 2862 2860 2858 2856 2855 2853 2851 2851 2851 2850 2846 2843 2840 2838 2837 2837 2837 2836 2834 2831 2830 2829 2828 2827 2826 2824 2823 2822 2821 2820 2818 2816 2815 2813 2812 2811 2810 2810 2809 2808 2807 2806 2805 2805 2804 2803 2802 2802 2801 2800 2800 2799 2798 2797 2796 2795 2794 2793 2792 2792 2791 2790 2790 2789 2788
2895 2894 2894 2892 2890 2887 2885 2885 2884 2882 2880 2878 2876 2874 2872 2870 2869 2868 2866 2865 2863 2861 2859 2857 2855 2853 2851 2850 2849 2849 2847 2845 2841 2838 2836 2835 2834 2834 2833 2831 2829 2827 2826 2825 2825 2823 2822 2821 2820 2819 2818 2816 2814 2813 2811 2810 2809 2808 2807 2807 2806 2805 2804 2803 2803 2802 2801 2800 2800 2799 2798 2797 2796 2795 2795 2794 2793 2792 2791 2790 2789 2789 2788 2787 2786 2785
2894 2892 2891 2890 2888 2885 2884 2883 2882 2880 2879 2876 2874 2872 2870 2869 2867 2866 2865 2863 2861 2859 2857 2855 2853 2851 2850 2849 2847 2847 2845 2843 2839 2836 2833 2832 2831 2831 2831 2829 2826 2825 2824 2823 2822 2821 2820 2819 2818 2817 2815 2814 2812 2810 2809 2808 2807 2806 2806 2805 2804 2803 2803 2802 2801 2800 2799 2799 2798 2797 2796 2795 2795 2794 2792 2791 2790 2790 2789 2788 2787 2786 2785 2784 2783 2783
2892 2890 2889 2888 2886 2884 2882 2881 2880 2879 2877 2875 2873 2871 2869 2867 2865 2864 2862 2861 2859 2857 2855 2854 2852 2850 2849 2847 2846 2845 2844 2841 2838 2835 2831 2829 2828 2828 2828 2826 2824 2822 2821 2820 2819 2818 2817 2816 2815 2815 2813 2812 2810 2809 2807 2806 2805 2805 2804 2803 2803 2802 2801 2800 2799 2798 2798 2797 2796 2795 2795 2794 2792 2791 2790 2789 2788 2787 2786 2785 2784 2783 2782 2781 2780 2780
2891 2889 2887 2886 2885 2883 2881 2880 2878 2877 2875 2874 2872 2870 2868 2866 2864 2862 2860 2859 2857 2855 2853 2851 2850 2848 2847 2845 2844 2843 2842 2840 2837 2834 2830 2827 2825 2825 2826 2824 2822 2820 2819 2818 2817 2815 2815 2814 2813 2812 2811 2810 2808 2807 2805 2805 2804 2803 2803 2802 2801 2800 2799 2798 2797 2797 2796 2795 2794 2794 2793 2791 2790 2789 2788 2787 2786 2785 2784 2783 2781 2780 2779 2778 2777 2776
2889 2887 2886 2885 2883 2881 2880 2878 2877 2875 2874 2872 2870 2869 2867 2865 2863 2860 2859 2857 2855 2853 2851 2849 2847 2846 2845 2843 2842 2841 2840 2839 2836 2833 2829 2826 2824 2823 2823 2822 2820 2818 2816 2815 2815 2813 2812 2812 2811 2810 2809 2808 2806 2805 2804 2803 2803 2802 2801 2800 2800 2799 2798 2797 2796 2795 2794 2794 2793 2792 2791 2790 2789 2787 2786 2785 2784 2783 2781 2780 2779 2778 2777 2775 2774 2773
2887 2885 2884 2883 2881 2880 2879 2877 2876 2874 2873 2871 2869 2866 2865 2863 2861 2859 2857 2855 2853 2851 2849 2847 2845 2843 2842 2841 2840 2839 2839 2838 2835 2832 2828 2825 2822 2821 2821 2820 2818 2815 2814 2813 2812 2811 2810 2809 2809 2808 2807 2806 2805 2804 2803 2802 2801 2800 2800 2799 2798 2797 2796 2795 2795 2794 2793 2792 2791 2790 2789 2788 2787 2786 2785 2783 2782 2781 2780 2778 2777 2775 2774 2772 2771 2770
2886 2885 2883 2882 2880 2879 2878 2876 2875 2873 2871 2869 2867 2865 2863 2861 2859 2858 2856 2854 2852 2850 2847 2845 2843 2841 2840 2839 2838 2837 2837 2836 2834 2831 2828 2824 2820 2819 2819 2818 2816 2814 2811 2810 2810 2809 2807 2807 2806 2806 2805 2804 2803 2802 2801 2800 2800 2799 2798 2797 2796 2795 2795 2794 2793 2792 2791 2790 2789 2788 2787 2786 2785 2784 2783 2781 2780 2779 2777 2776 2774 2773 2771 2769 2768 2766
2885 2884 2882 2881 2880 2878 2877 2875 2874 2872 2870 2868 2866 2863 2861 2859 2857 2856 2854 2853 2850 2848 2846 2844 2842 2840 2838 2837 2835 2835 2835 2834 2832 2830 2826 2822 2819 2816 2816 2815 2814 2812 2809 2808 2807 2806 2805 2805 2804 2804 2803 2802 2801 2800 2800 2799 2798 2797 2796 2795 2795 2794 2793 2792 2791 2790 2789 2788 2787 2786 2785 2784 2783 2782 2780 2779 2778 2776 2775 2773 2772 2770 2768 2766 2764 2762
2884 2883 2881 2880 2878 2876 2875 2873 2872 2870 2869 2866 2865 2862 2860 2858 2856 2854 2853 2851 2849 2847 2845 2843 2840 2839 2837 2835 2834 2833 2833 2832 2830 2827 2824 2821 2818 2815 2814 2813 2812 2810 2808 2805 2804 2804 2803 2803 2802 2801 2801 2800 2800 2799 2798 2797 2796 2795 2795 2794 2793 2792 2791 2790 2789 2788 2787 2786 2785 2785 2783 2782 2781 2780 2778 2777 2775 2774 2773 2771 2769 2767 2765 2763 2761 2759
2883 2881 2880 2878 2876 2875 2873 2871 2870 2868 2867 2865 2863 2861 2859 2857 2855 2853 2851 2850 2848 2846 2844 2842 2840 2838 2835 2833 2832 2831 2831 2831 2829 2826 2822 2820 2816 2814 2813 2812 2811 2809 2806 2803 2801 2800 2800 2800 2800 2799 2798 2798 2798 2797 2796 2795 2795 2794 2793 2792 2791 2790 2790 2789 2787 2786 2786 2785 2784 2783 2781 2780 2779 2777 2776 2775 2773 2772 2770 2769 2766 2764 2762 2760 2757 2755
2881 2880 2878 2876 2875 2873 2871 2870 2868 2867 2865 2863 2861 2860 2857 2855 2854 2852 2850 2848 2846 2845 2843 2841 2839 2837 2835 2832 2830 2829 2829 2829 2828 2825 2821 2818 2815 2813 2812 2811 2809 2808 2805 2802 2799 2796 2796 2797 2798 2797 2796 2796 2795 2795 2794 2793 2792 2791 2791 2790 2790 2789 2788 2787 2786 2785 2784 2783 2782 2780 2779 2778 2776 2775 2774 2772 2770 2769 2768 2766 2764 2761 2759 2756 2754 2752
2879 2878 2876 2875 2873 2871 2870 2868 2866 2865 2864 2862 2860 2858 2856 2854 2853 2851 2849 2847 2845 2844 2842 2840 2838 2836 2834 2832 2829 2827 2826 2827 2827 2824 2821 2817 2814 2812 2811 2809 2807 2806 2805 2803 2799 2795 2792 2792 2794 2795 2795 2794 2793 2793 2792 2791 2790 2789 2789 2788 2787 2787 2786 2785 2784 2783 2782 2781 2780 2778 2777 2775 2774 2772 2771 2770 2768 2766 2765 2763 2761 2759 2756 2753 2750 2749
2877 2875 2874 2872 2871 2870 2868 2866 2865 2863 2862 2860 2859 2857 2855 2853 2852 2850 2848 2846 2845 2843 2841 2839 2837 2835 2833 2831 2829 2827 2825 2825 2825 2823 2820 2816 2813 2811 2810 2808 2806 2804 2804 2802 2800 2797 2792 2789 2789 2790 2791 2791 2790 2790 2790 2789 2788 2787 2786 2785 2785 2784 2784 2782 2781 2780 2779 2778 2777 2776 2775 2773 2771 2770 2768 2767 2765 2764 2762 2761 2759 2756 2753 2750 2747 2745
2875 2874 2872 2871 2869 2868 2866 2865 2863 2862 2860 2859 2857 2855 2854 2852 2851 2849 2847 2845 2844 2842 2840 2837 2835 2833 2831 2830 2828 2826 2825 2824 2823 2821 2819 2815 2812 2810 2808 2806 2805 2803 2801 2800 2799 2797 2794 2790 2787 2787 2787 2787 2788 2787 2787 2787 2786 2785 2784 2783 2782 2781 2781 2780 2779 2777 2776 2775 2774 2773 2772 2770 2769 2767 2766 2764 2763 2761 2760 2758 2756 2754 2751 2748 2745 2742
2874 2872 2870 2869 2868 2866 2865 2864 2862 2860 2859 2857 2856 2854 2853 2851 2850 2848 2846 2844 2843 2840 2839 2836 2834 2832 2830 2828 2826 2824 2824 2823 2822 2820 2818 2815 2812 2809 2807 2805 2804 2802 2800 2798 2796 2794 2792 2790 2787 2785 2784 2784 2784 2785 2785 2784 2783 2783 2782 2780 2779 2778 2777 2777 2776 2775 2774 2773 2771 2770 2769 2768 2766 2765 2763 2762 2760 2759 2757 2755 2753 2751 2749 2745 2742 2739
2872 2870 2869 2868 2866 2865 2864 2862 2860 2859 2857 2856 2854 2853 2851 2850 2848 2846 2845 2843 2841 2839 2837 2835 2834 2831 2829 2827 2824 2822 2821 2821 2820 2819 2817 2815 2811 2809 2806 2804 2803 2801 2799 2796 2794 2792 2790 2787 2786 2784 2782 2780 2780 2781 2782 2781 2781 2780 2780 2778 2777 2776 2775 2774 2773 2771 2770 2770 2769 2767 2766 2764 2763 2761 2760 2759 2757 2755 2754 2752 2750 2748 2746 2743 2740 2738
2870 2869 2868 2866 2865 2863 2862 2860 2859 2858 2856 2855 2853 2851 2850 2848 2846 2845 2843 2841 2840 2838 2836 2835 2833 2831 2829 2826 2824 2821 2820 2819 2818 2817 2816 2814 2811 2808 2805 2803 2802 2800 2798 2795 2793 2790 2788 2785 2784 2783 2781 2779 2777 2777 2778 2779 2778 2778 2777 2776 2775 2774 2773 2771 2770 2769 2767 2766 2765 2764 2763 2761 2759 2758 2756 2755 2754 2752 2751 2749 2747 2745 2742 2740 2738 2735
2869 2868 2866 2865 2863 2862 2860 2859 2857 2856 2854 2853 2851 2850 2848 2846 2845 2843 2841 2840 2838 2836 2835 2833 2831 2830 2828 2826 2824 2821 2819 2817 2816 2815 2814 2812 2810 2808 2805 2802 2801 2800 2798 2795 2792 2789 2787 2784 2782 2780 2779 2778 2776 2775 2774 2774 2775 2774 2774 2773 2772 2771 2770 2769 2768 2766 2765 2763 2762 2760 2759 2757 2756 2754 2753 2752 2750 2749 2747 2745 2743 2741 2739 2736 2734 2731
2867 2866 2865 2863 2861 2860 2859 2857 2856 2854 2853 2851 2850 2848 2847 2845 2843 2842 2840 2838 2837 2835 2833 2831 2830 2828 2827 2825 2823 2820 2818 2816 2814 2813 2812 2810 2809 2807 2804 2801 2799 2798 2797 2795 2791 2789 2786 2783 2780 2778 2776 2775 2775 2773 2772 2771 2771 2770 2770 2769 2769 2768 2767 2766 2765 2763 2762 2760 2758 2757 2756 2754 2752 2751 2749 2748 2746 2745 2743 2741 2740 2737 2735 2732 2730 2728
2866 2865 2863 2861 2860 2858 2857 2855 2854 2853 2851 2850 2848 2846 2845 2843 2842 2840 2839 2837 2835 2833 2832 2830 2828 2826 2825 2824 2821 2819 2817 2815 2813 2811 2810 2809 2807 2805 2803 2800 2798 2796 2795 2793 2791 2788 2786 2783 2780 2778 2775 2773 2771 2771 2770 2770 2769 2767 2766 2765 2765 2765 2764 2763 2761 2760 2759 2757 2755 2754 2752 2751 2750 2748 2746 2744 2743 2741 2739 2737 2735 2733 2730 2728 2725 2724
2865 2863 2862 2860 2859 2857 2855 2854 2852 2851 2850 2848 2846 2845 2843 2841 2840 2838 2837 2835 2834 2832 2830 2828 2826 2825 2823 2822 2820 2818 2816 2814 2812 2810 2809 2807 2806 2804 2802 2800 2797 2794 2793 2791 2789 2787 2785 2782 2779 2777 2775 2772 2770 2768 2768 2767 2767 2765 2764 2762 2760 2760 2760 2760 2759 2757 2756 2754 2752 2750 2749 2748 2746 2745 2743 2741 2740 2738 2736 2734 2732 2730 2727 2725 2722 2720
2863 2862 2860 2859 2857 2856 2855 2853 2851 2850 2848 2846 2845 2843 2841 2840 2837 2836 2834 2833 2831 2830 2828 2826 2824 2822 2821 2820 2819 2817 2815 2813 2811 2810 2808 2806 2805 2803 2801 2798 2796 2793 2791 2789 2787 2785 2783 2781 2778 2776 2774 2771 2769 2767 2766 2765 2765 2764 2762 2760 2758 2757 2756 2756 2756 2755 2753 2751 2750 2748 2746 2745 2743 2742 2740 2739 2737 2735 2734 2731 2729 2726 2724 2722 2720 2718
2861 2860 2859 2857 2856 2855 2853 2852 2850 2848 2847 2845 2843 2841 2840 2837 2835 2833 2831 2830 2828 2827 2825 2823 2821 2820 2819 2818 2817 2816 2815 2813 2810 2809 2807 2805 2803 2801 2799 2797 2795 2792 2789 2787 2785 2783 2781 2779 2777 2775 2772 2770 2768 2766 2764 2763 2763 2762 2761 2759 2756 2754 2754 2754 2754 2753 2750 2749 2748 2746 2744 2742 2741 2739 2738 2736 2735 2733 2731 2729 2726 2724 2722 2720 2718 2717
2860 2859 2858 2856 2855 2853 2852 2850 2849 2847 2845 2844 2842 2840 2838 2836 2834 2831 2830 2828 2826 2825 2823 2821 2819 2818 2816 2815 2815 2814 2813 2812 2810 2808 2806 2804 2802 2800 2798 2796 2793 2791 2788 2785 2783 2780 2779 2777 2776 2774 2771 2770 2767 2765 2763 2761 2761 2760 2759 2757 2755 2753 2751 2750 2751 2750 2749 2747 2746 2744 2742 2740 2739 2737 2735 2733 2732 2730 2728 2726 2724 2722 2720 2717 2715 2714
2859 2858 2856 2855 2854 2852 2850 2849 2847 2845 2844 2842 2840 2839 2837 2835 2832 2830 2828 2826 2825 2823 2821 2819 2818 2816 2814 2813 2812 2811 2810 2810 2809 2807 2805 2803 2801 2799 2797 2794 2792 2790 2787 2785 2782 2779 2777 2775 2774 2772 2770 2769 2766 2764 2762 2760 2759 2758 2757 2755 2754 2752 2750 2749 2748 2747 2746 2745 2744 2743 2741 2739 2737 2735 2733 2731 2729 2728 2726 2724 2721 2719 2717 2715 2714 2712
2858 2856 2855 2854 2852 2850 2849 2847 2845 2844 2842 2841 2839 2837 2835 2833 2831 2829 2827 2825 2824 2822 2820 2818 2816 2814 2813 2811 2810 2809 2808 2807 2807 2806 2804 2802 2800 2798 2795 2793 2790 2788 2785 2783 2781 2778 2776 2774 2771 2770 2769 2767 2765 2764 2762 2760 2757 2756 2755 2753 2752 2750 2749 2748 2746 2745 2744 2743 2742 2741 2739 2737 2735 2732 2730 2728 2727 2725 2723 2721 2719 2717 2715 2714 2712 2711
2856 2855 2854 2852 2850 2849 2847 2845 2844 2842 2841 2839 2838 2836 2834 2832 2830 2828 2826 2824 2822 2820 2819 2817 2815 2813 2811 2810 2808 2806 2805 2804 2803 2802 2801 2800 2798 2796 2794 2791 2789 2786 2784 2781 2779 2777 2775 2773 2770 2768 2766 2765 2764 2762 2761 2759 2756 2754 2752 2751 2750 2748 2747 2746 2745 2744 2742 2741 2740 2738 2737 2735 2733 2730 2728 2726 2724 2723 2721 2719 2717 2715 2713 2712 2711 2710
2855 2853 2852 2850 2849 2847 2846 2844 2842 2841 2839 2838 2836 2835 2833 2831 2829 2827 2825 2823 2821 2820 2817 2816 2814 2812 2810 2809 2807 2805 2803 2801 2800 2799 2797 2796 2794 2793 2790 2789 2786 2784 2782 2780 2777 2775 2773 2771 2769 2767 2765 2763 2761 2760 2759 2758 2756 2753 2751 2749 2747 2746 2745 2744 2743 2742 2740 2739 2737 2735 2734 2732 2730 2728 2726 2724 2722 2721 2719 2717 2715 2713 2711 2710 2709 2708
2854 2852 2850 2849 2847 2846 2844 2843 2841 2840 2838 2836 2835 2834 2832 2830 2828 2826 2824 2822 2820 2818 2816 2815 2813 2811 2810 2808 2806 2804 2802 2800 2798 2796 2795 2793 2791 2789 2787 2785 2784 2781 2780 2778 2776 2774 2771 2770 2768 2766 2764 2762 2760 2757 2756 2755 2754 2752 2749 2747 2745 2744 2742 2741 2741 2740 2738 2737 2735 2734 2732 2730 2728 2726 2724 2722 2720 2719 2717 2715 2713 2711 2710 2709 2707 2706
2852 2850 2849 2847 2846 2845 2843 2841 2840 2838 2837 2835 2834 2832 2830 2829 2827 2825 2823 2821 2819 2817 2815 2814 2812 2810 2808 2807 2805 2803 2801 2799 2797 2795 2793 2791 2789 2786 2785 2783 2781 2779 2777 2775 2773 2771 2770 2768 2766 2765 2764 2761 2758 2755 2753 2752 2751 2749 2747 2745 2743 2741 2740 2739 2739 2738 2736 2735 2734 2732 2730 2729 2727 2725 2723 2720 2718 2717 2715 2714 2712 2710 2709 2707 2706 2705
2851 2850 2848 2846 2845 2843 2842 2840 2839 2837 2835 2834 2832 2830 2829 2828 2826 2824 2822 2820 2818 2816 2815 2813 2811 2809 2807 2805 2803 2801 2800 2797 2795 2793 2791 2789 2787 2785 2783 2780 2778 2776 2774 2772 2770 2769 2767 2765 2764 2764 2763 2761 2758 2755 2752 2750 2748 2747 2745 2744 2742 2740 2738 2737 2736 2736 2735 2733 2732 2730 2729 2727 2725 2724 2722 2719 2716 2715 2713 2712 2711 2709 2707 2706 2705 2704
2850 2849 2847 2845 2844 2842 2840 2839 2838 2836 2834 2833 2831 2829 2828 2826 2825 2823 2821 2819 2817 2815 2814 2812 2810 2808 2806 2804 2802 2800 2798 2796 2794 2792 2790 2788 2786 2784 2781 2779 2777 2774 2772 2769 2767 2765 2764 2762 2761 2761 2761 2760 2759 2756 2753 2750 2747 2745 2743 2742 2740 2739 2737 2736 2735 2734 2733 2732 2730 2729 2727 2726 2724 2722 2720 2717 2715 2713 2711 2710 2709 2708 2706 2705 2703 2702